{"data":{"norad_id":49771,"intl_designator":"2021-115AZ","name":"STARLINK-3201","alt_names":[],"object_type":"PAYLOAD","status":"ACTIVE","operator":null,"country":"US","launch_date":"2021-12-02","launch_site_code":"AFETR","launch_vehicle":null,"mission":null,"orbit_class":"UNKNOWN","rcs_meters":null,"size_class":null,"mass_kg":null,"dimensions":null,"purposes":["comms"],"wikipedia_slug":null,"has_3d_model":false,"image_url":null,"decayed_at":null,"tle_current":{"epoch":"2026-05-25T01:02:37.067712Z","epoch_age_seconds":67410,"freshness":"FRESH","line1":"1 49771U 21115AZ  26145.04348458  .00000797  00000+0  68154-4 0  9992","line2":"2 49771  53.2130 156.3575 0001244  92.1067 268.0068 15.08841415247204","mean_motion":15.08841415,"eccentricity":0.0001244,"inclination_deg":53.213,"raan_deg":156.3575,"arg_perigee_deg":92.1067,"mean_anomaly_deg":268.0068,"bstar":6.8154e-5,"rev_number":24720,"period_min":95.437465175888,"perigee_km":538.87848009622,"apogee_km":540.59964766091,"semimajor_km":6917.8760638786,"source":"CELESTRAK","updated_at":"2026-05-25T13:38:16.841686Z"}}}